This is the latest recevied weather packets stored in our database for station/object F4THN-13. If no packets are shown the sender has not sent any weather packets the latest 10 day(s).
| Time | Temp. | Humidity | Pressure | Rain* | Wind** | Luminosity | Snow |
|---|---|---|---|---|---|---|---|
| 1777912378 | 14.44° C | 81% | 1013.8 hPa | 1.02 mm | - | - | - |
| 1777910878 | 14.44° C | 81% | 1014.1 hPa | 1.52 mm | - | - | - |
| 1777909378 | 14.44° C | 81% | 1014.1 hPa | 1.52 mm | - | - | - |
| 1777907878 | 15° C | 80% | 1014.2 hPa | 1.02 mm | - | - | - |
| 1777906377 | 15° C | 80% | 1014.4 hPa | 0 mm | - | - | - |
| 1777904877 | 14.44° C | 79% | 1014.7 hPa | 0.51 mm | - | - | - |
| 1777903377 | 15° C | 78% | 1014.8 hPa | 0.51 mm | - | - | - |
| 1777901877 | 14.44° C | 79% | 1015.1 hPa | 1.02 mm | - | - | - |
| 1777900377 | 14.44° C | 79% | 1015 hPa | 1.52 mm | - | - | - |
| 1777898877 | 14.44° C | 79% | 1015.6 hPa | 1.02 mm | - | - | - |
| 1777897377 | 14.44° C | 79% | 1015.6 hPa | 2.03 mm | - | - | - |
| 1777895876 | 13.89° C | 79% | 1015.6 hPa | 2.03 mm | - | - | - |
| 1777894376 | 13.89° C | 79% | 1015.5 hPa | 1.52 mm | - | - | - |
| 1777892876 | 13.89° C | 78% | 1015.5 hPa | 1.02 mm | - | - | - |
| 1777891376 | 13.89° C | 78% | 1015.5 hPa | 1.52 mm | - | - | - |
| 1777889876 | 13.89° C | 77% | 1015.6 hPa | 1.52 mm | - | - | - |
| 1777888376 | 13.33° C | 77% | 1015.7 hPa | 2.54 mm | - | - | - |
| 1777886875 | 13.33° C | 77% | 1015.7 hPa | 2.54 mm | - | - | - |
| 1777885375 | 13.33° C | 77% | 1015.8 hPa | 1.52 mm | - | - | - |
| 1777883875 | 13.33° C | 78% | 1015.4 hPa | 0 mm | - | - | - |
| 1777882375 | 13.33° C | 78% | 1015.2 hPa | 0.51 mm | - | - | - |
| 1777880875 | 12.78° C | 78% | 1015.1 hPa | 1.02 mm | - | - | - |
| 1777879375 | 12.78° C | 77% | 1015 hPa | 1.52 mm | - | - | - |
| 1777877874 | 12.78° C | 77% | 1014.8 hPa | 2.03 mm | - | - | - |
| 1777876374 | 12.78° C | 76% | 1014.8 hPa | 2.03 mm | - | - | - |
* Rain latest hour (hover to see other rain measurements)
** Current wind speed in m/s (hover to see current wind gust speed)